This is the latest recevied weather packets stored in our database for station/object K3HW. If no packets are shown the sender has not sent any weather packets the latest 10 day(s).
| Time | Temp. | Humidity | Pressure | Rain* | Wind** | Luminosity | Snow |
|---|---|---|---|---|---|---|---|
| 1777941154 | 18.33° C | 48% | 1013.4 hPa | 0 mm | - | 0 W/m² | - |
| 1777940850 | 18.33° C | 46% | 1013.2 hPa | 0 mm | - | 0 W/m² | - |
| 1777940548 | 18.89° C | 47% | 1013.4 hPa | 0 mm | - | 0 W/m² | - |
| 1777940245 | 18.89° C | 45% | 1013.3 hPa | 0 mm | - | 0 W/m² | - |
| 1777939943 | 18.89° C | 44% | 1013.1 hPa | 0 mm | - | 0 W/m² | - |
| 1777939640 | 19.44° C | 44% | 1013.1 hPa | 0 mm | - | 1 W/m² | - |
| 1777939337 | 19.44° C | 43% | 1013.1 hPa | 0 mm | - | 1 W/m² | - |
| 1777939034 | 19.44° C | 43% | 1013 hPa | 0 mm | - | 2 W/m² | - |
| 1777938730 | 20° C | 44% | 1012.9 hPa | 0 mm | - | 3 W/m² | - |
| 1777938428 | 20° C | 42% | 1013.1 hPa | 0 mm | - | 4 W/m² | - |
| 1777938124 | 20.56° C | 42% | 1013.1 hPa | 0 mm | - | 5 W/m² | - |
| 1777937820 | 20.56° C | 42% | 1012.8 hPa | 0 mm | - | 7 W/m² | - |
| 1777937516 | 20.56° C | 40% | 1013 hPa | 0 mm | - | 9 W/m² | - |
| 1777937214 | 21.11° C | 40% | 1013 hPa | 0 mm | - | 10 W/m² | - |
| 1777936911 | 21.11° C | 40% | 1013 hPa | 0 mm | - | 13 W/m² | - |
| 1777936608 | 21.11° C | 39% | 1012.9 hPa | 0 mm | - | 15 W/m² | - |
| 1777936304 | 21.67° C | 39% | 1013 hPa | 0 mm | - | 16 W/m² | - |
| 1777936000 | 21.67° C | 38% | 1012.8 hPa | 0 mm | - | 17 W/m² | - |
| 1777935699 | 21.67° C | 38% | 1013 hPa | 0 mm | - | 19 W/m² | - |
| 1777935397 | 21.67° C | 37% | 1013 hPa | 0 mm | - | 23 W/m² | - |
| 1777935092 | 21.67° C | 38% | 1012.9 hPa | 0 mm | - | 32 W/m² | - |
| 1777934790 | 22.22° C | 38% | 1012.7 hPa | 0 mm | - | 26 W/m² | - |
| 1777934486 | 22.22° C | 40% | 1012.9 hPa | 0 mm | - | 43 W/m² | - |
| 1777934183 | 22.22° C | 38% | 1012.8 hPa | 0 mm | - | 36 W/m² | - |
| 1777933879 | 22.22° C | 37% | 1013 hPa | 0 mm | - | 30 W/m² | - |
* Rain latest hour (hover to see other rain measurements)
** Current wind speed in m/s (hover to see current wind gust speed)